{"data":{"norad_id":67172,"intl_designator":"2025-303K","name":"STARLINK-35762","alt_names":[],"object_type":"PAYLOAD","status":"ACTIVE","operator":null,"country":"US","launch_date":"2025-12-17","launch_site_code":"AFETR","launch_vehicle":null,"mission":null,"orbit_class":"UNKNOWN","rcs_meters":null,"size_class":null,"mass_kg":null,"dimensions":null,"purposes":["comms"],"wikipedia_slug":null,"has_3d_model":false,"image_url":null,"decayed_at":null,"tle_current":{"epoch":"2026-05-24T14:47:58.115904Z","epoch_age_seconds":102043,"freshness":"FRESH","line1":"1 67172U 25303K   26144.61664486  .00024968  00000+0  91413-3 0  9993","line2":"2 67172  42.9988 242.2305 0001304 258.4957 101.5748 15.27566741 24344","mean_motion":15.27566741,"eccentricity":0.0001304,"inclination_deg":42.9988,"raan_deg":242.2305,"arg_perigee_deg":258.4957,"mean_anomaly_deg":101.5748,"bstar":0.00091413,"rev_number":2434,"period_min":94.267566931794,"perigee_km":482.1940946986,"apogee_km":483.98350238686,"semimajor_km":6861.2257985427,"source":"CELESTRAK","updated_at":"2026-05-25T13:38:21.481383Z"}}}